TimeCST,TemperatureF,Dew PointF,Humidity,Sea Level PressureIn,VisibilityMPH,Wind Direction,Wind SpeedMPH,Gust SpeedMPH,PrecipitationIn,Events,Conditions,WindDirDegrees,DateUTC
12:15 AM,66.2,59.0,78,30.08,10.0,South,8.1,-,N/A,,Overcast,180,2012-12-04 06:15:00
12:36 AM,66.2,59.0,78,30.07,10.0,South,11.5,-,N/A,,Overcast,170,2012-12-04 06:36:00
12:55 AM,66.2,59.0,78,30.08,10.0,South,9.2,-,N/A,,Mostly Cloudy,170,2012-12-04 06:55:00
1:15 AM,66.2,59.0,78,30.08,10.0,South,10.4,-,N/A,,Overcast,170,2012-12-04 07:15:00
1:55 AM,66.2,59.0,78,30.09,10.0,SSW,11.5,-,N/A,,Overcast,200,2012-12-04 07:55:00
2:15 AM,66.2,60.8,83,30.09,10.0,South,11.5,-,N/A,,Overcast,190,2012-12-04 08:15:00
2:36 AM,66.2,60.8,83,30.08,10.0,South,16.1,-,N/A,,Overcast,190,2012-12-04 08:36:00
2:55 AM,66.2,59.0,78,30.07,10.0,South,12.7,-,N/A,,Mostly Cloudy,180,2012-12-04 08:55:00
3:35 AM,64.4,59.0,83,30.07,10.0,South,12.7,-,N/A,,Partly Cloudy,190,2012-12-04 09:35:00
4:15 AM,62.6,57.2,82,30.08,10.0,South,8.1,-,N/A,,Partly Cloudy,190,2012-12-04 10:15:00
4:35 AM,64.4,59.0,83,30.08,10.0,South,8.1,-,N/A,,Mostly Cloudy,180,2012-12-04 10:35:00
4:55 AM,64.4,57.2,77,30.08,10.0,SSE,8.1,-,N/A,,Overcast,160,2012-12-04 10:55:00
5:36 AM,62.6,57.2,82,30.08,10.0,SSE,9.2,-,N/A,,Overcast,160,2012-12-04 11:36:00
5:55 AM,62.6,57.2,82,30.08,10.0,SSE,9.2,-,N/A,,Mostly Cloudy,160,2012-12-04 11:55:00
6:15 AM,62.6,57.2,82,30.08,10.0,South,12.7,-,N/A,,Overcast,170,2012-12-04 12:15:00
6:55 AM,64.4,59.0,83,30.10,10.0,South,10.4,-,N/A,,Overcast,180,2012-12-04 12:55:00
7:15 AM,64.4,59.0,83,30.10,10.0,South,10.4,-,N/A,,Overcast,170,2012-12-04 13:15:00
7:35 AM,64.4,59.0,83,30.12,10.0,South,9.2,-,N/A,,Overcast,170,2012-12-04 13:35:00
7:55 AM,64.4,60.8,88,30.13,10.0,SSW,9.2,-,N/A,,Overcast,200,2012-12-04 13:55:00
8:15 AM,66.2,60.8,83,30.13,10.0,SSW,9.2,-,N/A,,Overcast,200,2012-12-04 14:15:00
8:35 AM,66.2,60.8,83,30.14,10.0,SSW,16.1,19.6,N/A,,Overcast,200,2012-12-04 14:35:00
8:55 AM,68.0,62.6,83,30.13,10.0,SSW,17.3,20.7,N/A,,Mostly Cloudy,200,2012-12-04 14:55:00
9:35 AM,69.8,62.6,78,30.13,10.0,South,16.1,25.3,N/A,,Mostly Cloudy,190,2012-12-04 15:35:00
9:55 AM,69.8,62.6,78,30.14,10.0,SSW,16.1,-,N/A,,Mostly Cloudy,200,2012-12-04 15:55:00
10:16 AM,71.6,62.6,73,30.15,10.0,SSW,13.8,-,N/A,,Scattered Clouds,210,2012-12-04 16:16:00
10:35 AM,73.4,62.6,69,30.14,10.0,SSW,12.7,-,N/A,,Scattered Clouds,200,2012-12-04 16:35:00
10:55 AM,73.4,62.6,69,30.14,10.0,SSW,12.7,-,N/A,,Mostly Cloudy,210,2012-12-04 16:55:00
11:15 AM,71.6,62.6,73,30.15,10.0,SSW,9.2,-,N/A,,Mostly Cloudy,200,2012-12-04 17:15:00
11:35 AM,71.6,62.6,73,30.15,10.0,North,12.7,19.6,N/A,Thunderstorm,Overcast,350,2012-12-04 17:35:00
11:56 AM,62.6,53.6,72,30.16,10.0,NNE,18.4,29.9,N/A,Thunderstorm,Overcast,30,2012-12-04 17:56:00
12:35 PM,59.0,53.6,82,30.13,3.0,ENE,17.3,-,N/A,Thunderstorm,Thunderstorm,60,2012-12-04 18:35:00
12:55 PM,59.0,53.6,82,30.15,4.0,East,13.8,19.6,N/A,Thunderstorm,Mostly Cloudy,80,2012-12-04 18:55:00
1:15 PM,59.0,53.6,82,30.11,10.0,NE,16.1,-,N/A,Thunderstorm,Thunderstorm,40,2012-12-04 19:15:00
1:35 PM,59.0,53.6,82,30.13,7.0,ENE,9.2,-,N/A,Thunderstorm,Thunderstorm,70,2012-12-04 19:35:00
1:55 PM,59.0,55.4,88,30.12,7.0,ENE,11.5,17.3,0.60,Thunderstorm,Thunderstorm,60,2012-12-04 19:55:00
2:55 PM,59.0,55.4,88,30.13,10.0,SSE,6.9,-,0.05,Thunderstorm,Thunderstorm,160,2012-12-04 20:55:00
3:15 PM,59.0,55.4,88,30.13,10.0,ESE,6.9,-,N/A,,Overcast,110,2012-12-04 21:15:00
3:35 PM,59.0,55.4,88,30.13,10.0,Calm,Calm,-,N/A,,Overcast,0,2012-12-04 21:35:00
4:15 PM,59.0,55.4,88,30.13,10.0,NNW,8.1,-,N/A,,Overcast,330,2012-12-04 22:15:00
4:35 PM,57.2,53.6,88,30.13,10.0,North,6.9,-,N/A,,Mostly Cloudy,350,2012-12-04 22:35:00
4:55 PM,57.2,53.6,88,30.16,10.0,NNW,9.2,-,N/A,,Scattered Clouds,330,2012-12-04 22:55:00
5:35 PM,57.2,53.6,88,30.15,10.0,North,10.4,-,N/A,,Mostly Cloudy,350,2012-12-04 23:35:00
5:55 PM,57.2,53.6,88,30.16,10.0,North,11.5,-,N/A,,Overcast,360,2012-12-04 23:55:00
6:15 PM,57.2,53.6,88,30.17,10.0,NNE,9.2,-,N/A,,Overcast,20,2012-12-05 00:15:00
6:55 PM,57.2,53.6,88,30.19,10.0,NNE,10.4,-,N/A,,Overcast,20,2012-12-05 00:55:00
7:15 PM,57.2,53.6,88,30.21,10.0,North,12.7,-,N/A,,Overcast,10,2012-12-05 01:15:00
7:55 PM,55.4,51.8,88,30.24,10.0,North,15.0,-,N/A,,Overcast,10,2012-12-05 01:55:00
8:35 PM,55.4,51.8,88,30.25,10.0,NNE,15.0,-,N/A,,Overcast,20,2012-12-05 02:35:00
9:15 PM,55.4,48.2,77,30.24,10.0,NNE,18.4,-,N/A,,Overcast,20,2012-12-05 03:15:00
9:35 PM,55.4,48.2,77,30.24,10.0,NNE,16.1,-,N/A,,Overcast,20,2012-12-05 03:35:00
9:55 PM,53.6,48.2,82,30.23,10.0,NNE,16.1,-,N/A,,Overcast,20,2012-12-05 03:55:00
10:15 PM,53.6,48.2,82,30.24,10.0,NNE,12.7,19.6,N/A,,Overcast,20,2012-12-05 04:15:00
10:55 PM,53.6,48.2,82,30.26,10.0,North,13.8,-,N/A,,Overcast,10,2012-12-05 04:55:00
11:15 PM,53.6,48.2,82,30.26,10.0,North,11.5,-,N/A,,Overcast,10,2012-12-05 05:15:00
11:35 PM,53.6,48.2,82,30.27,10.0,North,12.7,-,N/A,,Overcast,10,2012-12-05 05:35:00